Weather History for KAGC - August, 2014

Change the Weather History Date:

Saturday, August 9, 2014

  Actual Average Record
Temperature  
Mean Temperature 70 °F -  
Max Temperature 82 °F 81 °F 91 °F (1988)
Min Temperature 60 °F 59 °F 47 °F (1989)
Cooling Degree Days 5    
Growing Degree Days 20 (Base 50)    
Moisture  
Dew Point 59 °F    
Average Humidity 67    
Maximum Humidity 83    
Minimum Humidity 54    
Precipitation  
Precipitation 0.00 in - - ()
Sea Level Pressure  
Sea Level Pressure 30.09 in    
Wind  
Wind Speed 4 mph (ENE)    
Max Wind Speed 8 mph    
Max Gust Speed -    
Visibility 8 miles    
Events      
Averages and records for this station are not official NWS values.
T = Trace of Precipitation, MM = Missing Value Source: NWS Daily Summary

Daily Weather History Graph

Daily Weather History Graph

Search for Another Location

Airport or City:

Trip Planner

Search our weather history database for the weather conditions in past years. The results will help you decide how hot, cold, wet, or windy it might be!

Date:

Astronomy

Aug. 09, 2014 Rise Set
Actual Time 6:24 AM EDT 8:24 PM EDT
Civil Twilight 5:55 AM EDT 8:54 PM EDT
Nautical Twilight 5:18 AM EDT 9:30 PM EDT
Astronomical Twilight 4:39 AM EDT 10:09 PM EDT
Moon 7:24 PM EDT (8/9) 5:03 AM EDT (8/9)
Length of Visible Light 14h 59m
Length of Day
14h 00m
Waxing Gibbous, 98% of the Moon is Illuminated
Aug 9
Waxing Gibbous
Aug 10
Full
Aug 17
Last Quarter
Aug 25
New
Sep 2
First Quarter

Hourly Weather History & Observations

Time (EDT) Temp. Heat Index Dew Point Humidity Pressure Visibility Wind Dir Wind Speed Gust Speed Precip Events Conditions
12:53 AM 64.0 °F - 55.0 °F 73% 30.09 in 10.0 mi ENE 3.5 mph - N/A   Clear
1:53 AM 63.0 °F - 55.0 °F 75% 30.09 in 9.0 mi Calm Calm - N/A   Clear
2:53 AM 63.0 °F - 54.0 °F 72% 30.08 in 10.0 mi NE 3.5 mph - N/A   Clear
3:53 AM 61.0 °F - 55.0 °F 81% 30.08 in 8.0 mi NE 3.5 mph - N/A   Clear
4:53 AM 61.0 °F - 55.0 °F 81% 30.09 in 7.0 mi NE 3.5 mph - N/A   Clear
5:53 AM 60.1 °F - 55.0 °F 83% 30.08 in 7.0 mi NE 3.5 mph - N/A   Clear
6:53 AM 60.1 °F - 54.0 °F 80% 30.11 in 5.0 mi NE 4.6 mph - N/A   Haze
7:53 AM 62.1 °F - 55.9 °F 80% 30.11 in 7.0 mi NE 3.5 mph - N/A   Clear
8:53 AM 64.9 °F - 57.0 °F 75% 30.11 in 8.0 mi NE 3.5 mph - N/A   Clear
9:53 AM 70.0 °F - 59.0 °F 68% 30.11 in 9.0 mi ESE 3.5 mph - N/A   Clear
10:53 AM 73.0 °F - 61.0 °F 66% 30.11 in 7.0 mi East 5.8 mph - N/A   Clear
11:53 AM 75.0 °F - 62.1 °F 64% 30.12 in 7.0 mi SE 5.8 mph - N/A   Clear
12:53 PM 75.9 °F - 63.0 °F 64% 30.10 in 7.0 mi Variable 4.6 mph - N/A   Scattered Clouds
1:53 PM 80.1 °F 81.5 °F 63.0 °F 56% 30.09 in 8.0 mi SE 5.8 mph - N/A   Scattered Clouds
2:53 PM 80.1 °F 81.5 °F 63.0 °F 56% 30.08 in 8.0 mi ENE 3.5 mph - N/A   Scattered Clouds
3:53 PM 79.0 °F - 61.0 °F 54% 30.07 in 8.0 mi ENE 3.5 mph - N/A   Mostly Cloudy
4:53 PM 79.0 °F - 61.0 °F 54% 30.06 in 8.0 mi East 8.1 mph - N/A   Mostly Cloudy
5:53 PM 79.0 °F - 61.0 °F 54% 30.06 in 8.0 mi ENE 5.8 mph - N/A   Mostly Cloudy
6:53 PM 79.0 °F - 61.0 °F 54% 30.06 in 8.0 mi ENE 4.6 mph - N/A   Clear
7:53 PM 77.0 °F - 61.0 °F 58% 30.06 in 8.0 mi ENE 4.6 mph - N/A   Clear
8:53 PM 73.9 °F - 61.0 °F 64% 30.06 in 9.0 mi ENE 4.6 mph - N/A   Clear
9:53 PM 73.0 °F - 61.0 °F 66% 30.07 in 8.0 mi ENE 4.6 mph - N/A   Clear
10:53 PM 71.6 °F - 60.8 °F 69% 30.10 in 8.0 mi East 6.9 mph - N/A   Clear
11:53 PM 69.8 °F - 60.8 °F 73% 30.11 in 7.0 mi East 6.9 mph - N/A   Clear